• en France
  • Liste des pays
  • À 7 jours
  • Température de l'eau
  • Carte satellitaire
  • Carte météo
  • Widgets météo
  • user-avatar
    Se connecter

    Météo par heure à Manizales

    Ce jour, 27 Mai, Dimanche

    Heure Température Précipitation Vent Pression Humidité
    00:00 +15°C° 0,1 mm 1 m/s 603 mmHg 82%
    01:00 +15°C° 0,1 mm 1 m/s 603 mmHg 82%
    02:00 +15°C° 0 mm 1 m/s 602 mmHg 82%
    03:00 +15°C° 0 mm 1 m/s 602 mmHg 82%
    04:00 +15°C° 0 mm 1 m/s 602 mmHg 81%
    05:00 +15°C° 0 mm 1 m/s 603 mmHg 79%
    06:00 +16°C° 0 mm 1 m/s 603 mmHg 76%
    07:00 +16°C° 0 mm 0 m/s 604 mmHg 73%
    08:00 +18°C° 0 mm 0 m/s 605 mmHg 65%
    09:00 +22°C° 0 mm 1 m/s 606 mmHg 56%
    10:00 +25°C° 0 mm 1 m/s 607 mmHg 47%
    11:00 +25°C° 0,1 mm 1 m/s 606 mmHg 46%
    12:00 +26°C° 0,1 mm 1 m/s 606 mmHg 45%
    13:00 +26°C° 0,1 mm 1 m/s 606 mmHg 45%
    14:00 +25°C° 0,4 mm 1 m/s 605 mmHg 49%
    15:00 +24°C° 0,4 mm 1 m/s 604 mmHg 54%
    16:00 +21°C° 0,4 mm 0 m/s 603 mmHg 59%
    17:00 +21°C° 0,5 mm 1 m/s 603 mmHg 65%
    18:00 +19°C° 0,5 mm 1 m/s 603 mmHg 71%
    19:00 +18°C° 0,5 mm 1 m/s 603 mmHg 78%
    20:00 +16°C° 0,2 mm 1 m/s 603 mmHg 78%
    21:00 +16°C° 0,2 mm 1 m/s 603 mmHg 79%
    22:00 +16°C° 0,2 mm 1 m/s 604 mmHg 79%
    23:00 +16°C° 0,1 mm 1 m/s 604 mmHg 79%

    Demain, 28 Mai, Lundi

    Heure Température Précipitation Vent Pression Humidité
    00:00 +16°C° 0,1 mm 1 m/s 603 mmHg 79%
    01:00 +16°C° 0,1 mm 1 m/s 603 mmHg 80%
    02:00 +15°C° 0,1 mm 1 m/s 603 mmHg 80%
    03:00 +15°C° 0,1 mm 1 m/s 603 mmHg 80%
    04:00 +15°C° 0,1 mm 1 m/s 602 mmHg 80%
    05:00 +14°C° 0 mm 0 m/s 603 mmHg 79%
    06:00 +15°C° 0 mm 0 m/s 603 mmHg 77%
    07:00 +15°C° 0 mm 0 m/s 604 mmHg 75%
    08:00 +17°C° 0,2 mm 0 m/s 605 mmHg 71%
    09:00 +20°C° 0,2 mm 1 m/s 605 mmHg 67%
    10:00 +22°C° 0,2 mm 1 m/s 606 mmHg 63%
    11:00 +22°C° 0,6 mm 1 m/s 606 mmHg 64%
    12:00 +22°C° 0,6 mm 1 m/s 605 mmHg 64%
    13:00 +22°C° 0,6 mm 1 m/s 605 mmHg 65%
    14:00 +22°C° 0,4 mm 1 m/s 604 mmHg 63%
    15:00 +22°C° 0,4 mm 1 m/s 604 mmHg 62%
    16:00 +22°C° 0,4 mm 1 m/s 604 mmHg 60%
    17:00 +20°C° 0,3 mm 1 m/s 603 mmHg 66%
    18:00 +19°C° 0,3 mm 1 m/s 603 mmHg 73%
    19:00 +15°C° 0,3 mm 0 m/s 603 mmHg 79%
    20:00 +16°C° 0,2 mm 1 m/s 603 mmHg 80%
    21:00 +16°C° 0,2 mm 1 m/s 604 mmHg 82%
    22:00 +15°C° 0,2 mm 1 m/s 604 mmHg 83%
    23:00 +15°C° 0,2 mm 1 m/s 604 mmHg 84%

    Après-demain, 29 Mai, Mardi

    Heure Température Précipitation Vent Pression Humidité
    00:00 +14°C° 0,2 mm 0 m/s 603 mmHg 85%
    01:00 +14°C° 0,2 mm 0 m/s 603 mmHg 86%
    02:00 +14°C° 0,1 mm 0 m/s 603 mmHg 86%
    03:00 +13°C° 0,1 mm 0 m/s 603 mmHg 86%
    04:00 +14°C° 0,1 mm 1 m/s 602 mmHg 86%
    05:00 +14°C° 0,1 mm 0 m/s 603 mmHg 84%
    06:00 +14°C° 0,1 mm 0 m/s 603 mmHg 82%
    07:00 +15°C° 0,1 mm 0 m/s 604 mmHg 80%
    08:00 +17°C° 0,1 mm 0 m/s 605 mmHg 71%
    09:00 +21°C° 0,1 mm 1 m/s 606 mmHg 61%
    10:00 +23°C° 0,1 mm 1 m/s 607 mmHg 52%
    11:00 +24°C° 0,1 mm 1 m/s 606 mmHg 51%
    12:00 +24°C° 0,1 mm 1 m/s 606 mmHg 51%
    13:00 +24°C° 0,1 mm 1 m/s 606 mmHg 50%
    14:00 +23°C° 0,6 mm 1 m/s 605 mmHg 55%
    15:00 +22°C° 0,6 mm 1 m/s 604 mmHg 60%
    16:00 +19°C° 0,6 mm 0 m/s 603 mmHg 65%
    17:00 +20°C° 0,8 mm 1 m/s 603 mmHg 70%
    18:00 +19°C° 0,8 mm 1 m/s 603 mmHg 75%
    19:00 +16°C° 0,8 mm 1 m/s 603 mmHg 80%
    20:00 +16°C° 0,6 mm 1 m/s 603 mmHg 81%
    21:00 +16°C° 0,6 mm 1 m/s 604 mmHg 82%
    22:00 +16°C° 0,6 mm 1 m/s 604 mmHg 83%
    23:00 +15°C° 0,5 mm 1 m/s 604 mmHg 83%

    30 Mai, Mercredi

    Heure Température Précipitation Vent Pression Humidité
    00:00 +15°C° 0,5 mm 1 m/s 603 mmHg 84%
    01:00 +15°C° 0,5 mm 1 m/s 603 mmHg 85%
    02:00 +15°C° 0,5 mm 1 m/s 603 mmHg 85%
    03:00 +15°C° 0,5 mm 1 m/s 603 mmHg 85%
    04:00 +15°C° 0,5 mm 1 m/s 602 mmHg 85%
    05:00 +14°C° 0,4 mm 0 m/s 603 mmHg 84%
    06:00 +14°C° 0,4 mm 0 m/s 603 mmHg 82%
    07:00 +15°C° 0,4 mm 0 m/s 604 mmHg 81%
    08:00 +17°C° 0,4 mm 0 m/s 605 mmHg 74%
    09:00 +20°C° 0,4 mm 1 m/s 605 mmHg 67%
    10:00 +22°C° 0,4 mm 1 m/s 606 mmHg 60%
    11:00 +23°C° 0,4 mm 1 m/s 606 mmHg 58%
    12:00 +23°C° 0,4 mm 1 m/s 606 mmHg 56%
    13:00 +24°C° 0,4 mm 1 m/s 605 mmHg 54%
    14:00 +23°C° 0,3 mm 1 m/s 604 mmHg 56%
    15:00 +23°C° 0,3 mm 1 m/s 604 mmHg 58%
    16:00 +20°C° 0,3 mm 0 m/s 603 mmHg 59%
    17:00 +21°C° 0,2 mm 1 m/s 603 mmHg 66%
    18:00 +19°C° 0,2 mm 1 m/s 603 mmHg 72%
    19:00 +16°C° 0,2 mm 1 m/s 602 mmHg 78%
    20:00 +16°C° 0,2 mm 1 m/s 603 mmHg 79%
    21:00 +16°C° 0,2 mm 1 m/s 603 mmHg 80%
    22:00 +16°C° 0,2 mm 1 m/s 603 mmHg 81%
    23:00 +15°C° 0,2 mm 1 m/s 603 mmHg 81%

    31 Mai, Jeudi

    Heure Température Précipitation Vent Pression Humidité
    00:00 +15°C° 0,2 mm 1 m/s 603 mmHg 81%
    01:00 +15°C° 0,2 mm 1 m/s 602 mmHg 81%
    02:00 +15°C° 0,2 mm 1 m/s 602 mmHg 81%
    03:00 +15°C° 0,2 mm 1 m/s 602 mmHg 81%
    04:00 +15°C° 0,2 mm 1 m/s 602 mmHg 81%
    05:00 +15°C° 0,1 mm 1 m/s 602 mmHg 80%
    06:00 +15°C° 0,1 mm 0 m/s 603 mmHg 78%
    07:00 +15°C° 0,1 mm 0 m/s 604 mmHg 77%
    08:00 +17°C° 0,1 mm 0 m/s 605 mmHg 68%
    09:00 +22°C° 0,1 mm 1 m/s 605 mmHg 59%
    10:00 +24°C° 0,1 mm 1 m/s 606 mmHg 51%
    11:00 +25°C° 0,1 mm 1 m/s 606 mmHg 49%
    12:00 +25°C° 0,1 mm 1 m/s 605 mmHg 48%
    13:00 +26°C° 0,1 mm 1 m/s 605 mmHg 47%
    14:00 +25°C° 0,4 mm 1 m/s 604 mmHg 50%
    15:00 +24°C° 0,4 mm 1 m/s 603 mmHg 53%
    16:00 +21°C° 0,4 mm 0 m/s 603 mmHg 57%
    17:00 +21°C° 0,5 mm 1 m/s 602 mmHg 63%
    18:00 +20°C° 0,5 mm 1 m/s 602 mmHg 70%
    19:00 +18°C° 0,5 mm 1 m/s 602 mmHg 76%
    20:00 +18°C° 0,5 mm 1 m/s 602 mmHg 78%
    21:00 +16°C° 0,5 mm 1 m/s 603 mmHg 79%
    22:00 +16°C° 0,5 mm 1 m/s 603 mmHg 81%
    23:00 +16°C° 0,5 mm 1 m/s 603 mmHg 81%

    1 Juin, Vendredi

    Heure Température Précipitation Vent Pression Humidité
    00:00 +15°C° 0,5 mm 1 m/s 602 mmHg 82%
    01:00 +15°C° 0,5 mm 1 m/s 602 mmHg 82%
    02:00 +15°C° 0,6 mm 1 m/s 602 mmHg 83%
    03:00 +15°C° 0,6 mm 1 m/s 602 mmHg 83%
    04:00 +15°C° 0,6 mm 1 m/s 601 mmHg 84%
    05:00 +15°C° 0,4 mm 1 m/s 602 mmHg 82%
    06:00 +16°C° 0,4 mm 1 m/s 603 mmHg 81%
    07:00 +16°C° 0,4 mm 1 m/s 603 mmHg 79%
    08:00 +19°C° 0,2 mm 1 m/s 604 mmHg 73%
    09:00 +21°C° 0,2 mm 1 m/s 605 mmHg 66%
    10:00 +23°C° 0,2 mm 1 m/s 606 mmHg 60%
    11:00 +24°C° 0,1 mm 1 m/s 605 mmHg 55%
    12:00 +25°C° 0,1 mm 1 m/s 605 mmHg 51%
    13:00 +26°C° 0,1 mm 1 m/s 605 mmHg 47%
    14:00 +25°C° 0,2 mm 1 m/s 604 mmHg 50%
    15:00 +24°C° 0,2 mm 1 m/s 604 mmHg 54%
    16:00 +24°C° 0,2 mm 1 m/s 603 mmHg 58%
    17:00 +22°C° 0,3 mm 1 m/s 603 mmHg 64%
    18:00 +20°C° 0,3 mm 1 m/s 603 mmHg 70%
    19:00 +18°C° 0,3 mm 1 m/s 602 mmHg 77%
    20:00 +18°C° 0,3 mm 1 m/s 603 mmHg 78%
    21:00 +16°C° 0,3 mm 1 m/s 603 mmHg 79%
    22:00 +16°C° 0,3 mm 1 m/s 603 mmHg 80%
    23:00 +16°C° 0,3 mm 1 m/s 603 mmHg 81%
    Voir plus